METEOR 2-7 DEB, 28389

Orbit data source: Space-Track

METEOR 2-7 DEB, 28389 is space debris in LEO originally from a launch on Thu, 14 May 1981 UTC launched from the Plesetsk Missile And Space Complex (PKMTR). Debris objects in space refer to the collection of defunct objects orbiting the Earth. Examples of debris include non-operational satellites, rocket bodies, and fragments generated from explosions, collisions, or faulty payload assembly.

Loading next visibility...
Identifier
28389, 1981-043F
Orbit
LEO
Country
Flag of CISCIS
Related business
Manufacturer
Unknown
Mission
Spacecraft
Bus & Motor
Unknown
Mass
Unknown
Launch date (UTC)
1981-05-14 (44 years ago)
Launch vehicle
Unknown
Launch site
Plesetsk Missile And Space Complex (PKMTR)
Object type
Payload
Rocket body
Debris
Shape & HBR
Unknown
Radar Cross Section
Small (<0.1 m²)

Expand to show TLE details & history
Last TLE update: 1 day ago

TLE from 1 day ago
0 METEOR 2-7 DEB
1 28389U 81043F   25259.10468747  .00012866  00000-0  28859-2 0  9993
2 28389  81.2645 206.5205 0028475 101.2574 259.1825 14.56262401 88025
Epoch: 2025-09-16T02:30Z
TLE epoch observation values (Epoch: 2025-09-16T02:30:44.997Z)
Latitude
-0.00001°
Longitude
173.53324°
Altitude
712.073 km
Speed
7.498 km/s
True Right ascension
13h 46m 04s
True Declination
0° 00' 00"
Sunlit
Object was in daylight at epoch
Visualization orbit readout
Latitude
Unknown
Longitude
Unknown
Altitude
Unknown
Speed
Unknown
Apparent Right ascension
Unknown
Apparent Declination
Unknown
Sunlit
N/A
Visualization observer readout
Local Sidereal Time
00:43:08
Azimuth
Unknown
Elevation
Unknown
Doppler factor
Unknown
Orbital elements
Apogee altitude
722.541 km
Perigee altitude
682.218 km
Semi-major axis
7,080.517 km
Eccentricity
0.00285
Inclination
81.2645°
RAAN
206.5205°
Arg. of periapsis
101.2574°
True anomaly
258.86221°
Mean anomaly
259.1825°
Eccentric anomaly
259.02234°
Mean motion
3.64289 °/min
Orbital period
98.82 mins
BSTAR
0.0028859
Loading maneuver chart data...
Computing Atmospheric mass density...
Loading historical data...
Loading historical data...
Loading historical data...
Loading historical data...
Loading historical data...
Loading historical data...
Loading historical data...

Documentation

Showing up to 5 results
|